Location: Tabor
(49.4170°N, 14.6670°E)
Time: 11:09:11
(UTC+02:00)

ISS - Pass Details

Date: 23 May 2021
Orbit: 417 x 422 km, 51.6° (Epoch: 13 June)

Event Time Altitude Azimuth Distance (km) Brightness Sun altitude
Rises 23:46:57 0° 289° (WNW) 2,368 0.6 -18.1°
Reaches altitude 10° 23:49:04 10° 286° (WNW) 1,503 -0.5 -18.2°
Maximum altitude 23:52:24 61° 205° (SSW) 482 -3.8 -18.3°
Enters shadow 23:52:27 61° 200° (SSW) 482 -3.8 -18.3°
